Tracking 19177 objects as of 24-May-2018
HD Live streaming from Space Station
objects crossing your sky now

EUTE 33A (EB 3)

Track EUTE 33A (EB 3) now!
EUTE 33A (EB 3) is classified as:


NORAD ID: 27948
Int'l Code: 2003-043A
Perigee: 36,176.7 km
Apogee: 36,199.0 km
Inclination: 3.0 °
Period: 1,456.3 minutes
Semi major axis: 42558 km
RCS: 1.8733 m2 (large)
Launch date: September 27, 2003
Source: European Telecommunications Satellite Organization (EUTE)
Launch site: FRENCH GUIANA (FRGUI)

20 Ku-band transponders; video and data transmission to Europe and Turkey.
aabbcc
Your satellite tracking list
Your tracking list is empty




NASA's NSSDC Master Catalog

Two Line Element Set (TLE):
1 27948U 03043A   18143.86817983 -.00000024 +00000-0 +00000-0 0  9994
2 27948 003.0497 076.7956 0002623 173.0599 034.1364 00.98882202015929
Source of the keplerian elements: AFSPC